This demonstration page uses our WeatherBlox Daily Observations layout. Learn more.

Left ArrowRight Arrow

30.00354, -91.81873

Hourly Observations for October 1, 2022

Temp ( °F °C ) Dew Point ( °F °C ) Humidity (%) Winds ( mph kmh ) Pressure ( in mb ) Visibility ( mi km ) Precip ( " mm )
12:53 am 00:53 Clear 59 15 51 10.6 75 75 N 5 7 29.94 1014 10 16 0.00 0.00
1:53 am 01:53 Clear 58 14.4 51 10.6 78 78 N 3 6 29.94 1014 10 16 0.00 0.00
2:53 am 02:53 Clear 56 13.3 51 10.6 84 84 N 5 7 29.94 1014 10 16 0.00 0.00
3:53 am 03:53 Clear 58 14.4 49 9.4 72 72 N 6 9 29.94 1014 10 16 0.00 0.00
4:53 am 04:53 Clear 57 13.9 49 9.4 74 74 N 7 11 29.95 1014 10 16 0.00 0.00
5:53 am 05:53 Clear 55 12.8 49 9.4 80 80 N 7 11 29.97 1015 10 16 0.00 0.00
6:53 am 06:53 Clear 55 12.8 48 8.9 77 77 N 7 11 29.99 1016 10 16 0.00 0.00
7:53 am 07:53 Sunny 58 14.4 50 10 75 75 N 6 9 30.01 1016 10 16 0.00 0.00
8:53 am 08:53 Sunny 65 18.3 51 10.6 61 61 NE 6 9 30.03 1017 10 16 0.00 0.00
9:53 am 09:53 Sunny 71 21.7 52 11.1 51 51 NNE 6 9 30.04 1017 10 16 0.00 0.00
10:53 am 10:53 Sunny 76 24.4 50 10 40 40 NE 8 13 30.04 1017 10 16 0.00 0.00
11:53 am 11:53 Sunny 80 26.7 47 8.3 31 31 NNE 9 15 30.02 1017 10 16 0.00 0.00
12:53 pm 12:53 Sunny 81 27.2 47 8.3 30 30 VRB 7 11 30.00 1016 10 16 0.00 0.00
1:53 pm 13:53 Sunny 83 28.3 47 8.3 28 28 N 8 13 29.98 1015 10 16 0.00 0.00
2:53 pm 14:53 Sunny 84 28.9 48 8.9 29 29 N 8 13 29.96 1014 10 16 0.00 0.00
3:53 pm 15:53 Sunny 84 28.9 46 7.8 27 27 NNE 12 19 29.95 1014 10 16 0.00 0.00
4:53 pm 16:53 Sunny 83 28.3 45 7.2 26 26 NE 12 19 29.94 1014 10 16 0.00 0.00
5:53 pm 17:53 Sunny 80 26.7 45 7.2 29 29 NNE 10 17 29.96 1014 10 16 0.00 0.00
6:53 pm 18:53 Sunny 73 22.8 49 9.4 42 42 NE 5 7 29.97 1015 10 16 0.00 0.00
7:53 pm 19:53 Clear 67 19.4 52 11.1 59 59 NNE 3 6 29.99 1016 10 16 0.00 0.00
8:53 pm 20:53 Clear 64 17.8 52 11.1 65 65 N 3 6 30.01 1016 10 16 0.00 0.00
9:53 pm 21:53 Clear 66 18.9 49 9.4 54 54 N 6 9 30.02 1017 10 16 0.00 0.00
10:53 pm 22:53 Clear 61 16.1 52 11.1 72 72 N 3 6 30.03 1017 10 16 0.00 0.00
11:53 pm 23:53 Clear 59 15 52 11.1 77 77 N 5 7 30.03 1017 10 16 0.00 0.00

Powered by AerisWeather